STARLINK-1767, 46345

Orbit data source: Space-Track

STARLINK-1767, 46345 is a payload satellite owned by SpaceX/Seattle (US) in LEO that was launched on Thu, 03 Sep 2020 UTC via an FALCON 9 launch vehicle from the Air Force Eastern Test Range (AFETR). Payload-class satellites include a variety of spacecraft equipped with specific instruments for various scientific and technological missions. These include communications satellites like Starlink; space stations such as the ISS; scientific satellites like the Hubble; Earth observation satellites from companies like Planet Labs, Umbra, and HawkEye 360; GPS; miniature CubeSats for education and research; and military/defense satellites.

Loading next visibility...
Identifier
46345, 2020-062W
Orbit
LEO
Country
Flag of USUS
Related business
Manufacturer
SpaceX/Seattle
Mission
Partially operational Commercial Communications
Bus & Motor
STARLINK, Unknown motor
Mass
260 kg wet, ~248 kg dry
Launch date (UTC)
2020-09-03 (5 years ago)
Launch vehicle
FALCON 9
Launch site
Air Force Eastern Test Range (AFETR)
Object type
Payload
Rocket body
Debris
Shape & HBR
Box + 1 Pan, 10.1 m
Radar Cross Section
13.562 m², Large (>1 m²)

Expand to show TLE details & history
Last TLE update: 14 hours ago

TLE from 14 hours ago
0 STARLINK-1767
1 46345U 20062W   25306.58335647  .00180391  00000-0  30102-2 0  9999
2 46345  53.0461 203.5382 0012526  76.6383   3.4445 15.50761080  5856
Epoch: 2025-11-02T14:00Z
TLE epoch observation values (Epoch: 2025-11-02T14:00:01.999Z)
Latitude
52.07746°
Longitude
25.21246°
Altitude
412.282 km
Speed
7.675 km/s
True Right ascension
18h 29m 16s
True Declination
51° 54' 08"
Sunlit
Object was in daylight at epoch
Visualization orbit readout
Latitude
Unknown
Longitude
Unknown
Altitude
Unknown
Speed
Unknown
Apparent Right ascension
Unknown
Apparent Declination
Unknown
Sunlit
N/A
Visualization observer readout
Local Sidereal Time
23:56:48
Azimuth
Unknown
Elevation
Unknown
Doppler factor
Unknown
Orbital elements
Apogee altitude
423.289 km
Perigee altitude
406.271 km
Semi-major axis
6,792.917 km
Eccentricity
0.00125
Inclination
53.0461°
RAAN
203.5382°
Arg. of periapsis
76.6383°
True anomaly
3.45314°
Mean anomaly
3.4445°
Eccentric anomaly
3.44882°
Mean motion
3.87667 °/min
Orbital period
92.86 mins
BSTAR
0.0030102
Loading maneuver chart data...
Computing Atmospheric mass density...

Documentation

Showing up to 5 results
|